Flag for South Korea Weather past 2 weeks in Gunsan, South Korea

56 °F

Mostly cloudy.

Feels Like: 52 °F
Forecast: 57 / 63 °F
Wind: 14 mph from Northwest

Location: Kunsan Ab

Current Time: Oct 11, 2015 at 4:08:18 AM

Latest Report: Oct 11, 2015 at 2:58 AM

Visibility: 10 mi

Pressure: 29.91 "Hg

Humidity: 67%

Dew point: 45 °F

Location of GunsanLocation

Historic Weather in Gunsan — Graph


Gunsan temperature yesterday

Maximum temperature yesterday: 72 °F (at 1:58 PM)
Minimum temperature yesterday: 52 °F (at 2:58 AM)
Average temperature yesterday: 61 °F

Past Weeks' High & Low Weather Summary

High85 °F (Sep 28, 1:58 PM)100% (Sep 26, 2:04 AM)30.35 "Hg (Sep 26, 2:04 AM)
Low52 °F (Oct 2, 6:58 AM)26% (Oct 5, 1:58 PM)29.46 "Hg (Oct 1, 11:57 AM)
Average66 °F72%30.02 "Hg
* Reported Sep 26 2:04 AM — Oct 11 2:58 AM, Gunsan, Weather by CustomWeather, © 2015

Note: Actual official high and low records may vary slightly from our data, if they occured in-between our weather recording intervals... More about our weather records


Gunsan weather history for previous 24 hours

Time TempWeatherWind HumidityBarometerVisibility
2:58 AM
Sun, Oct 11
56 °FMostly cloudy.14 mph67%29.91 "Hg10 mi
1:59 AM54 °FLight rain. Passing clouds.21 mph88%29.89 "Hg9 mi
1:00 AM52 °FHeavy rain. Fog.17 mph88%29.90 "Hg4 mi
11:58 PM
Sat, Oct 10
54 °FPassing clouds.10 mph87%29.89 "Hg10 mi
11:03 PM61 °FLight rain. Partly cloudy.31 mph59%29.87 "Hg8 mi
10:58 PM60 °FPartly cloudy.13 mph60%29.87 "Hg10 mi
9:58 PM59 °FPartly cloudy.13 mph65%29.86 "Hg10 mi
8:58 PM61 °FPartly cloudy.17 mph74%29.83 "Hg10 mi
7:58 PM62 °FPassing clouds.8 mph73%29.82 "Hg10 mi
6:58 PM60 °FPassing clouds.7 mph87%29.81 "Hg10 mi
5:58 PM59 °FThunderstorms. Partly sunny.13 mph94%29.81 "Hg10 mi
5:01 PM64 °FLight rain. Passing clouds.15 mph73%29.78 "Hg10 mi
4:58 PM65 °FPassing clouds.15 mph72%29.79 "Hg10 mi
3:58 PM66 °FThundershowers. Scattered clouds.10 mph82%29.78 "Hg10 mi
2:58 PM72 °FPassing clouds.21 mph58%29.77 "Hg10 mi
1:58 PM72 °FSunny.18 mph56%29.78 "Hg10 mi
12:58 PM70 °FSunny.15 mph57%29.81 "Hg10 mi
11:58 AM69 °FSunny.21 mph56%29.83 "Hg10 mi
10:58 AM70 °FSunny.15 mph50%29.85 "Hg10 mi
10:02 AM68 °FSunny.13 mph56%29.84 "Hg10 mi
9:58 AM68 °FSunny.12 mph57%29.86 "Hg10 mi
8:58 AM61 °FSunny.8 mph71%29.87 "Hg10 mi
7:58 AM57 °FSunny.8 mph81%29.87 "Hg10 mi
6:58 AM54 °FSunny.8 mph89%29.87 "Hg10 mi
5:58 AM53 °FClear.7 mph90%29.87 "Hg10 mi
4:58 AM53 °FClear.8 mph88%29.87 "Hg10 mi
Weather by CustomWeather, © 2015

See weather overviewHow to use our weather pages